1532584800.59,57157,18.88,74072.8,7.47,7.23,7.11,0,*79
1532584801.84,57158,18.88,74068.0,7.47,7.15,7.23,0,*72
1532584803.09,57159,18.88,74064.8,7.47,7.27,7.27,0,*76
1532584804.32,57160,18.88,74066.8,7.49,7.27,7.33,0,*77
1532584805.57,57161,18.88,74064.8,7.47,7.23,7.15,0,*78
1532584806.82,57162,18.88,74070.8,7.49,7.15,7.11,0,*74
1532584808.07,57163,18.88,74070.5,7.47,7.15,7.15,0,*7F
1532584809.32,57164,18.88,74072.0,7.47,7.15,7.23,0,*7D
1532584810.57,57165,18.88,74074.3,7.47,7.23,7.23,0,*79
1532584811.82,57166,18.88,74072.3,7.49,7.15,7.23,0,*71
1532584813.07,57167,18.88,74078.0,7.47,7.15,7.11,0,*7F
1532584814.32,57168,18.88,74078.3,7.47,7.15,7.15,0,*74
1532584815.57,57169,18.88,74078.5,7.49,7.11,7.23,0,*7A
1532584816.82,57170,18.88,74078.3,7.49,7.15,7.23,0,*76
1532584818.08,57171,18.88,74074.5,7.49,7.11,7.27,0,*77
1532584819.33,57172,18.88,74078.8,7.47,7.15,7.15,0,*7F
1532584820.58,57173,18.88,74072.3,7.49,7.11,7.11,0,*70
1532584821.77,57174,18.88,74070.5,7.47,7.01,7.01,0,*79
1532584822.96,57175,18.88,74074.0,7.47,7.01,7.01,0,*78
1532584824.21,57176,18.88,74070.3,7.47,7.11,7.11,0,*7B
1532584825.46,57177,18.88,74072.3,7.49,7.15,7.27,0,*75
1532584826.72,57178,18.88,74074.3,7.49,7.27,7.27,0,*7B
1532584827.98,57179,18.88,74070.0,7.49,7.23,7.27,0,*7E
1532584829.23,57180,18.88,74068.5,7.49,7.23,7.23,0,*7C
1532584830.49,57181,18.88,74072.3,7.49,7.23,7.27,0,*79
1532584831.75,57182,18.88,74074.5,7.49,7.27,7.27,0,*7E
1532584833.0,57183,18.88,74074.8,7.49,7.23,7.27,0,*7B
1532584834.21,57184,18.88,74074.0,7.49,7.33,7.37,0,*7C
1532584835.43,57185,18.88,74074.5,7.49,7.33,7.27,0,*7C
1532584836.64,57186,18.88,74074.0,7.51,7.27,7.29,0,*7D
1532584837.9,57187,18.88,74074.8,7.49,7.23,7.23,0,*7B
1532584839.15,57188,18.88,74074.0,7.49,7.15,7.15,0,*74
1532584840.41,57189,18.88,74068.0,7.49,7.15,7.15,0,*75
1532584841.58,57190,18.88,74068.0,7.51,7.05,7.09,0,*78
1532584842.81,57191,18.88,74066.5,7.49,7.11,7.05,0,*79
1532584844.06,57192,18.88,74068.8,7.49,7.11,7.15,0,*7B
1532584845.31,57193,18.88,74066.0,7.49,7.15,7.23,0,*7B
1532584846.56,57194,18.88,74066.5,7.49,7.15,7.23,0,*7C
1532584847.82,57195,18.88,74066.5,7.49,7.11,7.15,0,*7C
1532584849.07,57196,18.88,74064.3,7.49,7.11,7.15,0,*7F
1532584850.32,57197,18.88,74066.3,7.49,7.11,7.11,0,*7A
1532584851.58,57198,18.88,74066.8,7.49,7.11,7.11,0,*75
1532584852.83,57199,18.88,74064.3,7.49,7.11,7.11,0,*74
1532584854.02,57200,18.88,74064.3,7.49,7.01,7.05,0,*73
1532584855.25,57201,18.88,74062.3,7.49,7.05,7.11,0,*73
1532584856.45,57202,18.88,74062.5,7.49,7.05,7.05,0,*75
1532584857.66,57203,18.88,74062.5,7.51,7.09,7.15,0,*70
1532584858.83,57204,18.88,74060.3,7.51,7.09,7.09,0,*7A
1532584860.01,57205,18.88,74060.3,7.51,7.05,7.05,0,*7B
1532584861.21,57206,18.88,74066.0,7.49,6.83,6.83,0,*71
1532584862.39,57207,18.88,74068.0,7.51,6.93,6.93,0,*79
1532584863.56,57208,18.88,74076.8,7.51,6.97,7.05,0,*7C
1532584864.74,57209,18.88,74072.0,7.51,6.93,6.93,0,*77
1532584865.97,57210,18.88,74068.0,7.49,6.91,6.93,0,*74
1532584867.19,57211,18.88,74070.3,7.47,6.91,6.93,0,*7B
1532584868.43,57212,18.81,74066.8,7.49,6.93,6.91,0,*76
1532584869.65,57213,18.88,74066.8,7.47,6.91,6.83,0,*78
1532584870.84,57214,18.88,74070.3,7.47,6.93,7.01,0,*76
1532584872.03,57215,18.88,74066.8,7.47,7.01,7.05,0,*79
1532584873.26,57216,18.88,74066.3,7.49,7.05,7.15,0,*71
1532584874.51,57217,18.88,74066.0,7.49,7.11,7.15,0,*75
1532584875.77,57218,18.88,74072.0,7.49,7.11,7.15,0,*7A
1532584877.02,57219,18.88,74072.8,7.47,7.11,7.15,0,*75
1532584878.24,57220,18.88,74070.3,7.49,7.01,7.11,0,*74
1532584879.47,57221,18.88,74074.5,7.49,7.11,7.05,0,*71
1532584880.72,57222,18.88,74072.8,7.49,7.15,7.15,0,*77
1532584881.97,57223,18.88,74074.0,7.47,7.11,7.15,0,*7C
1532584883.22,57224,18.88,74076.8,7.49,7.15,7.11,0,*75
1532584884.42,57225,18.88,74078.3,7.49,7.01,7.05,0,*74
1532584885.62,57226,18.88,74074.0,7.49,6.93,7.01,0,*79
1532584886.82,57227,18.81,74068.8,7.49,7.05,7.05,0,*72
1532584888.05,57228,18.88,74070.3,7.49,7.05,7.11,0,*78
1532584889.24,57229,18.88,74068.8,7.49,7.01,7.05,0,*78
1532584890.43,57230,18.81,74066.3,7.47,7.01,7.05,0,*7E
1532584891.66,57231,18.88,74068.5,7.49,7.05,7.15,0,*74
1532584892.91,57232,18.88,74068.0,7.47,7.11,7.15,0,*7C
1532584894.13,57233,18.88,74066.5,7.49,7.11,7.05,0,*72
1532584895.33,57234,18.88,74068.0,7.47,7.05,7.05,0,*7E
1532584896.53,57235,18.88,74070.3,7.49,7.05,7.01,0,*75
1532584897.75,57236,18.88,74068.8,7.49,6.91,7.01,0,*7A
1532584898.95,57237,18.88,74068.0,7.49,7.05,7.01,0,*77
1532584900.18,57238,18.88,74072.3,7.49,7.05,7.11,0,*79
1532584901.41,57239,18.88,74074.5,7.49,7.05,7.11,0,*78
1532584902.64,57240,18.88,74072.3,7.49,6.83,6.91,0,*70
1532584903.84,57241,18.88,74072.3,7.49,6.79,6.83,0,*77
1532584905.05,57242,18.88,74080.0,7.49,6.93,6.93,0,*71
1532584906.25,57243,18.88,74074.8,7.49,6.93,6.93,0,*70
1532584907.44,57244,18.88,74064.5,7.47,6.79,6.79,0,*79
1532584908.64,57245,18.88,74064.0,7.47,6.79,6.83,0,*7D
1532584909.89,57246,18.88,74060.5,7.47,6.47,6.53,0,*7E
1532584911.14,57247,18.81,74058.3,7.47,6.43,6.43,0,*7A
1532584912.4,57248,18.88,74062.5,7.47,6.65,6.65,0,*75
1532584913.62,57249,18.88,74062.0,7.41,6.65,6.73,0,*75
1532584914.82,57250,18.88,74052.0,7.43,6.79,6.75,0,*74
1532584916.04,57251,18.88,74044.8,7.41,6.65,6.65,0,*7B
1532584917.26,57252,18.88,74048.3,7.41,6.61,6.65,0,*7C
1532584918.48,57253,18.88,74054.3,7.41,6.73,6.73,0,*79
1532584919.68,57254,18.88,74050.0,7.41,6.73,6.79,0,*74
1532584920.9,57255,18.81,74060.8,7.41,6.73,6.73,0,*7F
1532584922.13,57256,18.88,74064.8,7.41,6.73,6.65,0,*7B
1532584923.35,57257,18.88,74062.8,7.41,6.65,6.65,0,*7D
1532584924.57,57258,18.88,74062.0,7.41,6.61,6.61,0,*72
1532584925.83,57259,18.88,74060.8,7.39,6.47,6.47,0,*7C
1532584927.08,57260,18.88,74062.0,7.39,6.61,6.57,0,*73
1532584928.33,57261,18.88,74068.0,7.39,6.61,6.61,0,*77
1532584929.56,57262,18.88,74078.0,7.37,6.65,6.65,0,*7A
1532584930.79,57263,18.88,74080.8,7.37,6.73,6.69,0,*70
1532584932.04,57264,18.88,74074.3,7.39,6.61,6.61,0,*72
1532584933.28,57265,18.88,74076.0,7.39,6.69,6.69,0,*73
1532584934.51,57266,18.88,74082.8,7.37,6.65,6.65,0,*7E
1532584935.76,57267,18.81,74080.0,7.39,6.61,6.69,0,*79
1532584936.99,57268,18.88,74072.3,7.37,6.65,6.65,0,*70
1532584938.24,57269,18.88,74066.5,7.39,6.61,6.65,0,*7B
1532584939.48,57270,18.88,74062.8,7.37,6.65,6.65,0,*79
1532584940.7,57271,18.88,74060.8,7.37,6.65,6.69,0,*74
1532584941.93,57272,18.88,74066.3,7.37,6.65,6.69,0,*77
1532584943.16,57273,18.88,74060.8,7.37,6.65,6.65,0,*7A
1532584944.39,57274,18.88,74070.0,7.37,6.65,6.73,0,*7A
1532584945.59,57275,18.88,74068.5,7.37,6.91,6.83,0,*7F
1532584946.83,57276,18.88,74072.0,7.37,6.91,6.91,0,*7F
1532584948.0,57277,18.88,74070.3,7.37,6.83,6.83,0,*7E
1532584949.18,57278,18.88,74070.0,7.37,6.83,6.83,0,*71
1532584950.35,57279,18.88,74070.0,7.37,6.83,6.83,0,*70
1532584951.55,57280,18.88,74070.0,7.37,6.91,6.93,0,*74
1532584952.73,57281,18.88,74070.8,7.37,6.79,6.79,0,*77
1532584953.93,57282,18.88,74074.0,7.39,6.75,6.75,0,*7A
1532584955.1,57283,18.88,74074.3,7.37,6.83,6.83,0,*75
1532584956.31,57284,18.88,74078.3,7.39,6.97,6.97,0,*7C
1532584957.49,57285,18.88,74084.8,7.37,6.93,7.01,0,*79
1532584958.67,57286,18.88,74080.0,7.37,6.93,7.05,0,*7E
1532584959.87,57287,18.88,74078.8,7.39,6.93,6.93,0,*7F
1532584961.1,57288,18.88,74072.3,7.37,6.91,6.91,0,*7E
1532584962.28,57289,18.88,74070.5,7.37,6.93,7.01,0,*75
1532584963.48,57290,18.88,74070.8,7.39,6.93,6.93,0,*79
1532584964.68,57291,18.88,74070.8,7.39,7.05,7.05,0,*78
1532584965.85,57292,18.88,74072.0,7.37,7.05,7.05,0,*75
1532584967.08,57293,18.88,74070.5,7.39,7.09,7.15,0,*77
1532584968.31,57294,18.88,74068.0,7.39,7.09,7.15,0,*70
1532584969.51,57295,18.88,74070.5,7.39,7.09,7.09,0,*7C
1532584970.74,57296,18.88,74070.8,7.39,7.09,7.15,0,*72
1532584971.92,57297,18.88,74072.8,7.41,7.09,7.09,0,*71
1532584973.12,57298,18.88,74072.0,7.39,6.97,6.97,0,*71
1532584974.32,57299,18.88,74070.5,7.39,7.09,7.05,0,*7C
1532584975.53,57300,18.88,74070.8,7.39,7.05,7.09,0,*7D
1532584976.78,57301,18.88,74070.5,7.39,7.15,7.15,0,*70
1532584978.0,57302,18.88,74068.5,7.41,7.19,7.19,0,*7C
1532584979.22,57303,18.88,74072.5,7.41,7.11,7.11,0,*7D
1532584980.45,57304,18.88,74068.8,7.41,7.23,7.23,0,*7A
1532584981.66,57305,18.88,74068.8,7.41,7.19,7.23,0,*72
1532584982.89,57306,18.88,74070.5,7.41,7.23,7.23,0,*78
1532584984.11,57307,18.88,74072.3,7.41,7.23,7.23,0,*79
1532584985.36,57308,18.88,74074.3,7.43,7.23,7.23,0,*74
1532584986.58,57309,18.88,74070.3,7.41,7.23,7.23,0,*77
1532584987.83,57310,18.88,74072.3,7.43,7.23,7.23,0,*7D
1532584989.08,57311,18.88,74074.5,7.43,7.23,7.19,0,*75
1532584990.33,57312,18.88,74072.0,7.43,7.23,7.23,0,*7F
1532584991.58,57313,18.88,74070.5,7.43,7.19,7.19,0,*7E
1532584992.79,57314,18.88,74074.0,7.41,7.23,7.29,0,*71
1532584994.04,57315,18.88,74074.8,7.43,7.23,7.23,0,*78
1532584995.28,57316,18.88,74076.3,7.43,7.19,7.23,0,*72
1532584996.53,57317,18.88,74072.0,7.43,7.11,7.19,0,*72
1532584997.76,57318,18.88,74076.3,7.43,7.09,7.11,0,*7C
1532584999.0,57319,18.88,74070.3,7.43,7.11,7.19,0,*7C
1532585000.25,57320,18.88,74072.0,7.43,7.19,7.23,0,*77
1532585001.5,57321,18.88,74070.5,7.43,7.23,7.23,0,*7F
1532585002.74,57322,18.88,74074.5,7.43,7.19,7.23,0,*75
1532585003.99,57323,18.88,74074.0,7.47,7.27,7.23,0,*7D
1532585005.25,57324,18.88,74072.5,7.47,7.27,7.27,0,*7E
1532585006.5,57325,18.88,74074.5,7.49,7.27,7.27,0,*71
1532585007.7,57326,18.88,74070.3,7.47,7.33,7.37,0,*78
1532585008.9,57327,18.88,74070.8,7.47,7.37,7.37,0,*7D
1532585010.1,57328,18.88,74070.8,7.49,7.37,7.37,0,*7C
1532585011.3,57329,18.88,74070.3,7.49,7.37,7.45,0,*78
1532585012.5,57330,18.88,74070.0,7.49,7.33,7.33,0,*75
1532585013.75,57331,18.88,74070.8,7.47,7.23,7.27,0,*7E
1532585015.01,57332,18.88,74068.5,7.47,7.23,7.27,0,*7D
1532585016.23,57333,18.88,74072.5,7.47,7.27,7.33,0,*7D
1532585017.45,57334,18.88,74068.8,7.47,7.27,7.33,0,*7A
1532585018.7,57335,18.88,74072.8,7.47,7.15,7.11,0,*7A
1532585019.95,57336,18.88,74070.8,7.49,7.15,7.15,0,*73
1532585021.21,57337,18.88,74072.5,7.49,7.23,7.27,0,*76
1532585022.47,57338,18.81,74066.3,7.49,7.23,7.15,0,*78
1532585023.73,57339,18.88,74068.5,7.49,7.23,7.15,0,*79
1532585024.98,57340,18.88,74068.0,7.49,7.27,7.23,0,*76
1532585026.24,57341,18.88,74070.3,7.49,7.27,7.27,0,*73
1532585027.47,57342,18.88,74070.8,7.49,7.27,7.37,0,*71
1532585028.67,57343,18.88,74070.5,7.49,7.37,7.37,0,*71
1532585029.9,57344,18.88,74068.3,7.49,7.27,7.33,0,*73
1532585031.11,57345,18.88,74078.5,7.49,7.33,7.37,0,*73
1532585032.28,57346,18.88,74074.5,7.51,7.37,7.37,0,*7D
1532585033.46,57347,18.88,74072.0,7.51,7.37,7.41,0,*7D
1532585034.65,57348,18.88,74072.0,7.51,7.41,7.47,0,*75
1532585035.85,57349,18.88,74072.0,7.51,7.51,7.47,0,*75
1532585037.06,57350,18.88,74072.0,7.53,7.55,7.59,0,*74
1532585038.29,57351,18.88,74074.8,7.51,7.47,7.47,0,*7B
1532585039.5,57352,18.88,74068.8,7.51,7.27,7.29,0,*76
1532585040.73,57353,18.88,74070.8,7.51,7.27,7.27,0,*79
1532585041.93,57354,18.88,74068.3,7.53,7.41,7.45,0,*78
1532585043.14,57355,18.88,74068.3,7.53,7.51,7.51,0,*7D
1532585044.36,57356,18.88,74068.8,7.53,7.51,7.51,0,*7E
1532585045.56,57357,18.88,74072.0,7.53,7.51,7.55,0,*7B
1532585046.78,57358,18.88,74072.0,7.53,7.55,7.59,0,*7C
1532585048.01,57359,18.88,74068.5,7.53,7.59,7.69,0,*72
1532585049.25,57360,18.88,74068.5,7.53,7.59,7.69,0,*78
1532585050.46,57361,18.88,74072.3,7.55,7.59,7.65,0,*73
1532585051.67,57362,18.88,74072.5,7.55,7.59,7.69,0,*7C
1532585052.92,57363,18.88,74070.3,7.57,7.69,7.69,0,*7C
1532585054.18,57364,18.88,74074.0,7.57,7.69,7.61,0,*73
1532585055.44,57365,18.88,74072.8,7.57,7.61,7.61,0,*7A
1532585056.67,57366,18.88,74072.3,7.59,7.65,7.73,0,*70
1532585057.9,57367,18.88,74074.3,7.59,7.65,7.73,0,*71
1532585059.15,57368,18.88,74072.3,7.61,7.61,7.65,0,*76
1532585060.36,57369,18.88,74074.0,7.61,7.59,7.59,0,*73
1532585061.57,57370,18.88,74072.3,7.59,7.59,7.61,0,*7B
1532585062.79,57371,18.88,74072.8,7.59,7.61,7.65,0,*75
1532585064.02,57372,18.88,74072.3,7.59,7.65,7.65,0,*72
1532585065.25,57373,18.88,74072.8,7.59,7.73,7.73,0,*73
1532585066.51,57374,18.88,74070.3,7.61,7.65,7.73,0,*78
1532585067.76,57375,18.88,74070.0,7.61,7.65,7.65,0,*7E
1532585069.02,57376,18.88,74072.5,7.61,7.65,7.73,0,*7A
1532585070.28,57377,18.88,74070.3,7.61,7.73,7.77,0,*78
1532585071.51,57378,18.88,74072.3,7.63,7.77,7.77,0,*71
1532585072.69,57379,18.88,74070.8,7.63,7.79,7.79,0,*70
1532585073.87,57380,18.88,74074.3,7.63,7.79,7.79,0,*76
1532585075.1,57381,18.88,74072.3,7.63,7.77,7.87,0,*78
1532585076.35,57382,18.88,74068.8,7.65,7.77,7.77,0,*72
1532585077.58,57383,18.88,74070.3,7.63,7.69,7.69,0,*75
1532585078.84,57384,18.88,74074.8,7.65,7.69,7.69,0,*74
1532585080.06,57385,18.88,74072.5,7.65,7.69,7.79,0,*74
1532585081.29,57386,18.88,74072.5,7.63,7.61,7.65,0,*74
1532585082.51,57387,18.88,74074.0,7.63,7.69,7.65,0,*7D
1532585083.77,57388,18.88,74070.8,7.65,7.69,7.69,0,*78
1532585085.0,57389,18.88,74074.5,7.67,7.73,7.73,0,*7B
1532585086.22,57390,18.88,74074.0,7.67,7.83,7.91,0,*70
1532585087.42,57391,18.88,74072.8,7.67,7.91,8.01,0,*74
1532585088.64,57392,18.88,74070.5,7.67,7.83,7.91,0,*72
1532585089.86,57393,18.88,74070.0,7.71,7.83,7.87,0,*73
1532585091.08,57394,18.88,74072.3,7.71,7.87,7.87,0,*70
1532585092.32,57395,18.88,74074.0,7.73,7.83,7.83,0,*73
1532585093.56,57396,18.88,74074.8,7.73,7.83,7.87,0,*74
1532585094.76,57397,18.88,74070.3,7.75,7.79,7.87,0,*76
1532585096.02,57398,18.88,74066.3,7.73,7.69,7.69,0,*7E
1532585097.19,57399,18.88,74062.5,7.67,7.45,7.55,0,*7B
1532585098.42,57400,18.81,74062.8,7.71,7.61,7.61,0,*7A
1532585099.65,57401,18.88,74068.0,7.71,7.61,7.61,0,*7B
1532585100.88,57402,18.88,74064.8,7.71,7.61,7.69,0,*70
1532585102.12,57403,18.88,74070.5,7.71,7.73,7.77,0,*7D
1532585103.37,57404,18.88,74070.3,7.73,7.77,7.77,0,*7C
1532585104.57,57405,18.88,74070.8,7.75,7.79,7.91,0,*7D
1532585105.81,57406,18.88,74064.5,7.73,7.83,7.83,0,*7E
1532585107.04,57407,18.88,74066.5,7.75,7.61,7.65,0,*7D
1532585108.26,57408,18.88,74060.3,7.75,7.61,7.65,0,*72
1532585109.46,57409,18.88,74066.3,7.73,7.51,7.59,0,*79
1532585110.71,57410,18.88,74066.3,7.73,7.27,7.27,0,*79
1532585111.96,57411,18.88,74064.8,7.73,7.47,7.47,0,*78
1532585113.21,57412,18.88,74064.5,7.73,7.61,7.69,0,*73
1532585114.46,57413,18.88,74062.5,7.73,7.77,7.83,0,*71
1532585115.7,57414,18.88,74070.0,7.73,7.87,7.87,0,*7D
1532585116.92,57415,18.88,74068.8,7.75,7.87,7.87,0,*7A
1532585118.12,57416,18.88,74068.0,7.75,7.79,7.87,0,*78
1532585119.37,57417,18.88,74066.8,7.77,7.91,7.91,0,*7A
1532585120.62,57418,18.88,74064.8,7.73,7.83,7.87,0,*75
1532585121.84,57419,18.88,74066.0,7.75,7.87,7.87,0,*76
1532585123.04,57420,18.88,74070.3,7.75,7.77,7.79,0,*72
1532585124.27,57421,18.81,74066.3,7.75,7.73,7.73,0,*7D
1532585125.48,57422,18.88,74066.8,7.75,7.55,7.61,0,*79
1532585126.7,57423,18.88,74068.3,7.75,7.61,7.65,0,*7B
1532585127.9,57424,18.88,74070.8,7.75,7.73,7.79,0,*72
1532585129.11,57425,18.88,74074.3,7.75,7.77,7.79,0,*77
1532585130.34,57426,18.88,74072.3,7.77,7.79,7.87,0,*79
1532585131.57,57427,18.88,74072.8,7.79,7.91,7.95,0,*73
1532585132.82,57428,18.88,74070.5,7.77,7.87,7.87,0,*76
1532585134.08,57429,18.88,74070.3,7.77,7.77,7.77,0,*77
1532585135.28,57430,18.88,74068.0,7.79,7.79,7.83,0,*74
1532585136.48,57431,18.88,74064.3,7.79,7.79,7.83,0,*75
1532585137.7,57432,18.88,74066.5,7.79,7.83,7.83,0,*73
1532585138.92,57433,18.88,74064.8,7.79,7.77,7.83,0,*79
1532585140.18,57434,18.88,74066.8,7.77,7.73,7.77,0,*7F
1532585141.39,57435,18.88,74066.5,7.77,7.79,7.79,0,*7A
1532585142.61,57436,18.88,74064.0,7.79,7.83,7.83,0,*77
1532585143.83,57437,18.88,74064.3,7.79,7.83,7.91,0,*75
1532585145.06,57438,18.88,74066.8,7.79,7.91,7.91,0,*79
1532585146.28,57439,18.88,74064.3,7.79,7.83,7.83,0,*78
1532585147.48,57440,18.88,74064.8,7.79,7.79,7.83,0,*73
1532585148.7,57441,18.88,74068.0,7.79,7.83,7.83,0,*77
1532585149.92,57442,18.88,74070.0,7.79,7.83,7.95,0,*73
1532585151.14,57443,18.88,74072.8,7.79,7.83,7.91,0,*76
1532585152.35,57444,18.88,74072.0,7.81,7.87,7.97,0,*74
1532585153.55,57445,18.88,74070.8,7.81,7.95,7.97,0,*76
1532585154.74,57446,18.88,74074.0,7.81,7.79,7.79,0,*77
1532585155.97,57447,18.88,74078.0,7.85,7.83,7.83,0,*72
1532585157.15,57448,18.88,74074.8,7.81,7.79,7.79,0,*79
1532585158.39,57449,18.88,74070.0,7.83,7.73,7.79,0,*70
1532585159.62,57450,18.88,74066.5,7.81,7.73,7.83,0,*7F
1532585160.84,57451,18.88,74068.3,7.81,7.87,7.87,0,*71
1532585162.03,57452,18.88,74070.5,7.81,7.79,7.79,0,*72
1532585163.24,57453,18.88,74074.8,7.81,7.79,7.83,0,*76
1532585164.46,57454,18.88,74070.5,7.81,7.83,7.83,0,*74
1532585165.68,57455,18.88,74074.5,7.81,7.51,7.61,0,*76
1532585166.9,57456,18.88,74068.8,7.83,7.41,7.47,0,*72
1532585168.11,57457,18.88,74068.0,7.81,7.47,7.51,0,*70
1532585169.34,57458,18.88,74070.3,7.81,7.61,7.73,0,*7B
1532585170.56,57459,18.88,74068.0,7.81,7.73,7.79,0,*73
1532585171.8,57460,18.88,74070.8,7.83,7.83,7.83,0,*71
1532585173.03,57461,18.88,74068.0,7.81,7.87,7.87,0,*72
1532585174.28,57462,18.88,74068.8,7.83,7.87,7.95,0,*70
1532585175.51,57463,18.88,74070.3,7.81,7.87,7.87,0,*70
1532585176.76,57464,18.88,74072.3,7.83,7.83,7.87,0,*71
1532585177.97,57465,18.88,74072.8,7.83,7.79,7.79,0,*74
1532585179.19,57466,18.88,74068.3,7.83,7.79,7.83,0,*72
1532585180.38,57467,18.88,74068.0,7.81,7.79,7.79,0,*74
1532585181.63,57468,18.88,74072.8,7.83,7.83,7.83,0,*79
1532585182.86,57469,18.88,74068.3,7.83,7.79,7.83,0,*7D
1532585184.09,57470,18.88,74070.3,7.85,7.77,7.83,0,*7D
1532585185.32,57471,18.88,74066.8,7.83,7.73,7.79,0,*7B
1532585186.58,57472,18.88,74068.0,7.83,7.61,7.73,0,*71
1532585187.83,57473,18.88,74068.0,7.83,7.69,7.73,0,*78
1532585189.07,57474,18.88,74068.0,7.85,7.73,7.73,0,*72
1532585190.33,57475,18.88,74068.8,7.83,7.73,7.69,0,*7E
1532585191.58,57476,18.88,74068.5,7.83,7.69,7.73,0,*7D
1532585192.77,57477,18.88,74072.0,7.81,7.79,7.79,0,*75
1532585193.97,57478,18.88,74064.0,7.83,7.51,7.51,0,*78
1532585195.15,57479,18.88,74066.8,7.81,7.41,7.41,0,*7B
1532585196.38,57480,18.88,74070.5,7.83,7.47,7.51,0,*78
1532585197.61,57481,18.88,74074.0,7.83,7.59,7.61,0,*75
1532585198.85,57482,18.88,74070.3,7.81,7.61,7.69,0,*77
1532585200.06,57483,18.88,74068.0,7.81,7.59,7.61,0,*75
1532585201.27,57484,18.88,74074.3,7.83,7.51,7.51,0,*7B
1532585202.47,57485,18.88,74072.3,7.81,7.37,7.47,0,*7F
1532585203.67,57486,18.88,74072.3,7.83,7.37,7.41,0,*78
1532585204.89,57487,18.88,74072.0,7.81,7.47,7.47,0,*7A
1532585206.08,57488,18.88,74068.8,7.81,7.29,7.29,0,*75
1532585207.32,57489,18.88,74064.8,7.81,7.27,7.19,0,*79
1532585208.54,57490,18.88,74070.8,7.79,7.11,7.11,0,*7B
1532585209.76,57491,18.88,74070.3,7.79,7.15,7.23,0,*7F
1532585210.99,57492,18.88,74070.5,7.79,7.15,7.11,0,*7D
1532585212.24,57493,18.88,74072.3,7.77,7.23,7.23,0,*76
1532585213.41,57494,18.88,74070.8,7.79,7.37,7.37,0,*7F
1532585214.61,57495,18.88,74074.3,7.77,7.41,7.41,0,*70
1532585215.81,57496,18.88,74074.3,7.77,7.45,7.45,0,*73
1532585217.02,57497,18.88,74072.3,7.77,7.55,7.55,0,*72
1532585218.24,57498,18.88,74072.0,7.79,7.61,7.65,0,*77
1532585219.49,57499,18.88,74072.0,7.77,7.65,7.65,0,*7C
1532585220.73,57500,18.88,74072.5,7.79,7.77,7.69,0,*7C
1532585221.98,57501,18.88,74070.3,7.77,7.65,7.65,0,*7C
1532585223.2,57502,18.88,74068.5,7.79,7.69,7.69,0,*71
1532585224.43,57503,18.88,74070.3,7.79,7.69,7.69,0,*70
1532585225.65,57504,18.88,74070.3,7.79,7.65,7.65,0,*77
1532585226.87,57505,18.88,74066.0,7.79,7.65,7.65,0,*76
1532585228.1,57506,18.88,74068.3,7.79,7.69,7.69,0,*75
1532585229.27,57507,18.88,74070.8,7.79,7.45,7.45,0,*74
1532585230.49,57508,18.88,74064.3,7.79,7.15,7.15,0,*7B
1532585231.72,57509,18.88,74066.3,7.79,7.23,7.15,0,*7F
1532585232.95,57510,18.88,74062.8,7.79,7.23,7.27,0,*76
1532585234.18,57511,18.88,74064.3,7.77,7.23,7.29,0,*77
1532585235.35,57512,18.88,74066.0,7.79,7.45,7.45,0,*70
1532585236.56,57513,18.88,74062.5,7.77,7.51,7.55,0,*7B
1532585237.76,57514,18.88,74060.0,7.77,7.41,7.45,0,*7C
1532585239.01,57515,18.88,74058.8,7.77,7.11,7.11,0,*79
1532585240.26,57516,18.88,74058.8,7.77,7.23,7.23,0,*7A
1532585241.47,57517,18.88,74056.3,7.77,7.33,7.29,0,*70
1532585242.65,57518,18.88,74056.8,7.75,7.29,7.29,0,*76
1532585243.85,57519,18.88,74064.5,7.75,7.29,7.23,0,*7D
1532585245.11,57520,18.88,74064.8,7.77,7.19,7.19,0,*7F
1532585246.28,57521,18.88,74064.5,7.75,7.09,7.09,0,*7C
1532585247.45,57522,18.88,74062.3,7.75,6.83,6.83,0,*7F
1532585248.64,57523,18.88,74060.0,7.75,6.91,6.93,0,*7C
1532585249.84,57524,18.88,74062.5,7.73,7.05,7.09,0,*73
1532585251.09,57525,18.88,74064.3,7.73,7.27,7.19,0,*73
1532585252.3,57526,18.88,74064.8,7.73,7.29,7.29,0,*7D
1532585253.54,57527,18.88,74068.5,7.73,7.47,7.47,0,*7C
1532585254.75,57528,18.88,74070.8,7.73,7.51,7.51,0,*73
1532585256.0,57529,18.88,74074.5,7.73,7.61,7.61,0,*72
1532585257.23,57530,18.88,74074.5,7.73,7.59,7.61,0,*71
1532585258.46,57531,18.88,74072.8,7.75,7.61,7.61,0,*7D
1532585259.67,57532,18.88,74072.3,7.75,7.55,7.61,0,*79
1532585260.9,57533,18.88,74072.0,7.75,7.61,7.61,0,*7F
1532585262.12,57534,18.88,74078.5,7.73,7.61,7.59,0,*75
1532585263.3,57535,18.88,74072.3,7.75,7.55,7.55,0,*79
1532585264.48,57536,18.88,74070.3,7.75,7.51,7.51,0,*7A
1532585265.66,57537,18.88,74078.8,7.75,7.55,7.55,0,*7B
1532585266.86,57538,18.88,74074.3,7.75,7.55,7.61,0,*73
1532585268.09,57539,18.88,74076.8,7.75,7.61,7.65,0,*71
1532585269.31,57540,18.88,74078.8,7.75,7.65,7.65,0,*7B
1532585270.53,57541,18.88,74078.8,7.75,7.65,7.65,0,*7A
1532585271.74,57542,18.88,74072.8,7.75,7.55,7.61,0,*7E
1532585272.94,57543,18.88,74070.8,7.77,7.51,7.51,0,*7A
1532585274.12,57544,18.88,74074.0,7.75,7.55,7.55,0,*7F
1532585275.3,57545,18.88,74072.0,7.75,7.55,7.55,0,*7E
1532585276.48,57546,18.88,74066.3,7.75,7.55,7.55,0,*7D
1532585277.65,57547,18.88,74070.0,7.75,7.41,7.45,0,*78
1532585278.85,57548,18.88,74066.5,7.77,7.45,7.45,0,*71
1532585280.02,57549,18.88,74070.0,7.75,7.55,7.55,0,*72
1532585281.24,57550,18.88,74070.3,7.75,7.65,7.65,0,*7A
1532585282.47,57551,18.88,74070.8,7.75,7.61,7.65,0,*7F
1532585283.65,57552,18.88,74068.0,7.75,7.51,7.51,0,*78
1532585284.87,57553,18.88,74074.3,7.75,7.61,7.65,0,*7D
1532585286.13,57554,18.88,74074.0,7.77,7.65,7.73,0,*7B
1532585287.38,57555,18.88,74072.3,7.77,7.65,7.73,0,*7A
1532585288.64,57556,18.88,74070.0,7.77,7.61,7.61,0,*7E
1532585289.85,57557,18.88,74072.3,7.77,7.51,7.55,0,*7B
1532585291.05,57558,18.88,74074.8,7.77,7.45,7.51,0,*75
1532585292.25,57559,18.88,74076.3,7.77,7.45,7.45,0,*71
1532585293.46,57560,18.88,74070.8,7.77,7.51,7.55,0,*7F
1532585294.7,57561,18.88,74074.8,7.77,7.55,7.61,0,*7D
1532585295.93,57562,18.88,74076.5,7.77,7.55,7.61,0,*7E
1532585297.17,57563,18.88,74078.5,7.77,7.51,7.61,0,*7B
1532585298.37,57564,18.88,74076.3,7.77,7.29,7.33,0,*74
1532585299.58,57565,18.88,74078.8,7.77,7.29,7.29,0,*7E
1532585300.8,57566,18.88,74078.0,7.79,7.11,7.23,0,*72
1532585302.01,57567,18.88,74076.0,7.77,7.29,7.33,0,*77
1532585303.21,57568,18.88,74076.8,7.77,7.45,7.45,0,*73
1532585304.42,57569,18.88,74078.8,7.77,7.55,7.55,0,*72
1532585305.62,57570,18.88,74074.8,7.77,7.45,7.41,0,*7E
1532585306.82,57571,18.88,74076.8,7.77,7.45,7.45,0,*7B
1532585308.02,57572,18.88,74076.3,7.77,7.45,7.51,0,*7D
1532585309.23,57573,18.88,74078.0,7.77,7.51,7.51,0,*79
1532585310.46,57574,18.88,74072.8,7.77,7.61,7.55,0,*79
1532585311.69,57575,18.88,74070.8,7.75,7.61,7.65,0,*79
1532585312.9,57576,18.88,74068.8,7.75,7.65,7.65,0,*7E
1532585314.13,57577,18.88,74068.8,7.79,7.69,7.69,0,*73
1532585315.36,57578,18.88,74072.8,7.79,7.69,7.69,0,*7C
1532585316.59,57579,18.88,74074.5,7.79,7.69,7.69,0,*7D
1532585317.81,57580,18.88,74078.0,7.79,7.69,7.69,0,*7B
1532585319.07,57581,18.88,74078.8,7.77,7.65,7.73,0,*73
1532585320.33,57582,18.88,74074.5,7.77,7.61,7.61,0,*77
1532585321.55,57583,18.88,74072.0,7.79,7.47,7.47,0,*78
1532585322.75,57584,18.88,74074.5,7.77,7.41,7.45,0,*75
1532585323.95,57585,18.88,74074.0,7.77,7.45,7.55,0,*71
1532585325.16,57586,18.88,74072.0,7.79,7.47,7.55,0,*7E
1532585326.39,57587,18.88,74068.5,7.77,7.55,7.61,0,*75
1532585327.6,57588,18.88,74066.5,7.77,7.55,7.55,0,*7D
1532585328.8,57589,18.88,74068.3,7.79,7.65,7.59,0,*7D
1532585330.02,57590,18.88,74072.5,7.79,7.65,7.65,0,*7A
1532585331.24,57591,18.88,74068.8,7.79,7.65,7.65,0,*7B
1532585332.49,57592,18.88,74070.0,7.77,7.61,7.65,0,*72
1532585333.74,57593,18.88,74072.0,7.77,7.65,7.65,0,*77